Retour au catalogue

STARLINK-38296

ActifCommunicationsSSO
NORAD 100376·PAYLOAD·🇺🇸 United States

Lancé Aug 19, 2026 depuis Vandenberg Space Force Base

Loading…

Prochains Passages (prochaines 24 heures)

TLE

FraisSource: Space-Track

Époque: Sep 14, 2026, 20:07 UTC

1 A0376U 26190F   26257.83877735  .00280193  00000-0  18140-2 0  9993
2 A0376  97.2843 111.9052 0000398  49.9423 310.1878 15.75245005  5480

Suivez STARLINK-38296 en temps réel avec AllMySat

Download on the App Store